Find Starlink 33643

NORAD ID: 63381 Int'l Des: 2025-063 Owner: SPXS Country: US Constellation: starlink operational
LEOCIRCULAR

リアルタイム位置

3D地球を読み込み中...

Starlink 33643について

説明を読み込み中...

次回通過

Passes for default location (London). Set your location on the main map for personalized predictions.

高度履歴

Loading altitude history...

軌道要素

1 63381U 25063U 26122.59593150 .00011352 00000-0 39499-3 0 9996
2 63381 53.1568 162.0074 0001022 85.8842 274.2276 15.30185801 63013
Epoch: May 2, 2026 • Age: 17 hours

現在のステータス

高度 492.8 km
速度 7.62 km/s
衛星直下点 -49.14°S, 129.48°E
打ち上げ日 Mar 26, 2025
運用期間 1.1 years
タイプ internet

技術仕様

分類 Payload
質量 575.00 kg
乾燥質量 530.00 kg
総質量 575.00 kg
長さ 0.30 m
直径 4.10 m
スパン 29.00 m
形状 Box + pan
製造者 SPXS
バスタイプ Starlink V2MO
フェーズステータス In Orbit
所有者/国 SPXS/US

Most Searched